Year,Month,Day,Hour,Minute,Value (Times are PST for windgust in km/hr)
2019,09,15,00,05,9.60
2019,09,15,00,06,9.60
2019,09,15,00,07,6.40
2019,09,15,00,08,9.60
2019,09,15,00,09,8.10
2019,09,15,00,10,12.90
2019,09,15,00,11,8.10
2019,09,15,00,12,6.40
2019,09,15,00,13,6.40
2019,09,15,00,14,6.40
2019,09,15,00,15,4.80
2019,09,15,00,16,4.80
2019,09,15,00,17,4.80
2019,09,15,00,18,4.80
2019,09,15,00,19,3.20
2019,09,15,00,20,1.60
2019,09,15,01,06,4.80
2019,09,15,01,07,6.40
2019,09,15,01,08,6.40
2019,09,15,01,09,8.10
2019,09,15,01,10,6.40
2019,09,15,01,11,6.40
2019,09,15,01,12,4.80
2019,09,15,01,13,4.80
2019,09,15,01,14,4.80
2019,09,15,01,15,3.20
2019,09,15,01,16,3.20
2019,09,15,01,17,1.60
2019,09,15,01,27,4.80
2019,09,15,01,28,4.80
2019,09,15,01,29,6.40
2019,09,15,01,30,4.80
2019,09,15,01,31,3.20
2019,09,15,01,32,3.20
2019,09,15,01,33,3.20
2019,09,15,01,34,4.80
2019,09,15,01,35,3.20
2019,09,15,01,36,3.20
2019,09,15,01,37,4.80
2019,09,15,01,38,3.20
2019,09,15,01,39,4.80
2019,09,15,01,40,3.20
2019,09,15,01,42,1.60
2019,09,15,01,55,4.80
2019,09,15,01,56,1.60
2019,09,15,01,58,3.20
2019,09,15,01,59,4.80
2019,09,15,02,00,3.20
2019,09,15,02,03,3.20
2019,09,15,02,04,3.20
2019,09,15,02,05,3.20
2019,09,15,02,06,4.80
2019,09,15,02,32,1.60
2019,09,15,02,33,3.20
2019,09,15,02,34,3.20
2019,09,15,02,38,4.80
2019,09,15,02,39,6.40
2019,09,15,02,40,4.80
2019,09,15,02,41,4.80
2019,09,15,02,42,3.20
2019,09,15,02,43,1.60
2019,09,15,03,07,3.20
2019,09,15,03,08,3.20
2019,09,15,03,09,3.20
2019,09,15,04,53,1.60
2019,09,15,04,58,1.60
2019,09,15,04,59,3.20
2019,09,15,05,12,4.80
2019,09,15,05,20,3.20
2019,09,15,05,21,4.80
2019,09,15,05,22,4.80
2019,09,15,05,23,3.20
2019,09,15,05,24,6.40
2019,09,15,05,25,4.80
2019,09,15,05,26,3.20
2019,09,15,05,28,3.20
2019,09,15,05,29,3.20
2019,09,15,05,38,1.60
2019,09,15,05,49,1.60
2019,09,15,05,50,1.60
2019,09,15,05,54,3.20
2019,09,15,05,55,6.40
2019,09,15,05,56,1.60
2019,09,15,06,30,1.60
2019,09,15,06,31,3.20
2019,09,15,08,26,1.60
2019,09,15,08,27,1.60
2019,09,15,08,28,1.60
2019,09,15,08,37,1.60
2019,09,15,08,38,3.20
2019,09,15,08,39,6.40
2019,09,15,08,40,4.80
2019,09,15,08,41,11.30
2019,09,15,08,42,6.40
2019,09,15,08,43,4.80
2019,09,15,08,47,4.80
2019,09,15,08,48,4.80
2019,09,15,08,49,3.20
2019,09,15,08,50,1.60
2019,09,15,09,44,4.80
2019,09,15,09,45,4.80
2019,09,15,09,46,6.40
2019,09,15,09,47,6.40
2019,09,15,09,48,6.40
2019,09,15,09,49,6.40
2019,09,15,09,50,8.10
2019,09,15,09,51,8.10
2019,09,15,09,52,8.10
2019,09,15,09,53,4.80
2019,09,15,09,54,4.80
2019,09,15,09,55,6.40
2019,09,15,09,56,4.80
2019,09,15,09,57,8.10
2019,09,15,09,58,6.40
2019,09,15,09,59,8.10
2019,09,15,10,00,9.60
2019,09,15,10,01,9.60
2019,09,15,10,02,9.60
2019,09,15,10,03,11.30
2019,09,15,10,04,11.30
2019,09,15,10,05,12.90
2019,09,15,10,06,9.60
2019,09,15,10,07,14.50
2019,09,15,10,08,14.50
2019,09,15,10,09,12.90
2019,09,15,10,10,8.10
2019,09,15,10,11,9.60
2019,09,15,10,12,11.30
2019,09,15,10,13,11.30
2019,09,15,10,14,11.30
2019,09,15,10,15,9.60
2019,09,15,10,16,9.60
2019,09,15,10,17,8.10
2019,09,15,10,18,9.60
2019,09,15,10,19,11.30
2019,09,15,10,20,11.30
2019,09,15,10,21,9.60
2019,09,15,10,22,14.50
2019,09,15,10,23,11.30
2019,09,15,10,24,11.30
2019,09,15,10,25,6.40
2019,09,15,10,26,9.60
2019,09,15,10,27,9.60
2019,09,15,10,28,6.40
2019,09,15,10,29,6.40
2019,09,15,10,30,6.40
2019,09,15,10,31,6.40
2019,09,15,10,32,9.60
2019,09,15,10,33,9.60
2019,09,15,10,34,4.80
2019,09,15,10,35,3.20
2019,09,15,10,36,4.80
2019,09,15,10,37,4.80
2019,09,15,10,38,4.80
2019,09,15,10,39,6.40
2019,09,15,10,40,6.40
2019,09,15,10,41,6.40
2019,09,15,10,42,6.40
2019,09,15,10,43,6.40
2019,09,15,10,44,3.20
2019,09,15,10,45,4.80
2019,09,15,10,46,4.80
2019,09,15,10,47,8.10
2019,09,15,10,48,4.80
2019,09,15,10,49,4.80
2019,09,15,10,50,6.40
2019,09,15,10,51,8.10
2019,09,15,10,52,8.10
2019,09,15,10,53,9.60
2019,09,15,10,54,9.60
2019,09,15,10,55,8.10
2019,09,15,10,56,6.40
2019,09,15,10,57,6.40
2019,09,15,10,58,1.60
2019,09,15,10,59,4.80
2019,09,15,11,00,3.20
2019,09,15,11,01,4.80
2019,09,15,11,02,4.80
2019,09,15,11,03,1.60
2019,09,15,11,05,4.80
2019,09,15,11,06,8.10
2019,09,15,11,07,6.40
2019,09,15,11,08,8.10
2019,09,15,11,09,6.40
2019,09,15,11,10,4.80
2019,09,15,11,11,4.80
2019,09,15,11,12,6.40
2019,09,15,11,13,4.80
2019,09,15,11,14,4.80
2019,09,15,11,15,8.10
2019,09,15,11,16,6.40
2019,09,15,11,17,6.40
2019,09,15,11,18,3.20
2019,09,15,11,19,4.80
2019,09,15,11,20,6.40
2019,09,15,11,21,4.80
2019,09,15,11,22,6.40
2019,09,15,11,23,3.20
2019,09,15,11,24,8.10
2019,09,15,11,25,8.10
2019,09,15,11,26,8.10
2019,09,15,11,27,8.10
2019,09,15,11,28,6.40
2019,09,15,11,29,8.10
2019,09,15,11,30,9.60
2019,09,15,11,31,6.40
2019,09,15,11,32,3.20
2019,09,15,11,33,6.40
2019,09,15,11,34,3.20
2019,09,15,11,35,4.80
2019,09,15,11,36,6.40
2019,09,15,11,37,6.40
2019,09,15,11,38,8.10
2019,09,15,11,39,8.10
2019,09,15,11,40,9.60
2019,09,15,11,41,6.40
2019,09,15,11,42,8.10
2019,09,15,11,43,8.10
2019,09,15,11,44,12.90
2019,09,15,11,45,6.40
2019,09,15,11,46,8.10
2019,09,15,11,47,8.10
2019,09,15,11,48,9.60
2019,09,15,11,49,9.60
2019,09,15,11,50,6.40
2019,09,15,11,51,8.10
2019,09,15,11,52,8.10
2019,09,15,11,53,6.40
2019,09,15,11,54,6.40
2019,09,15,11,55,8.10
2019,09,15,11,56,9.60
2019,09,15,11,57,11.30
2019,09,15,11,58,9.60
2019,09,15,11,59,8.10
2019,09,15,12,00,6.40
2019,09,15,12,01,12.90
2019,09,15,12,02,6.40
2019,09,15,12,03,9.60
2019,09,15,12,04,12.90
2019,09,15,12,05,12.90
2019,09,15,12,06,9.60
2019,09,15,12,07,6.40
2019,09,15,12,08,8.10
2019,09,15,12,09,8.10
2019,09,15,12,10,8.10
2019,09,15,12,11,9.60
2019,09,15,12,12,3.20
2019,09,15,12,13,8.10
2019,09,15,12,14,4.80
2019,09,15,12,15,9.60
2019,09,15,12,16,8.10
2019,09,15,12,17,6.40
2019,09,15,12,18,4.80
2019,09,15,12,19,4.80
2019,09,15,12,20,4.80
2019,09,15,12,21,3.20
2019,09,15,12,22,3.20
2019,09,15,12,23,6.40
2019,09,15,12,24,11.30
2019,09,15,12,25,4.80
2019,09,15,12,26,4.80
2019,09,15,12,27,9.60
2019,09,15,12,28,6.40
2019,09,15,12,29,6.40
2019,09,15,12,30,6.40
2019,09,15,12,31,3.20
2019,09,15,12,32,4.80
2019,09,15,12,33,8.10
2019,09,15,12,34,11.30
2019,09,15,12,35,8.10
2019,09,15,12,36,4.80
2019,09,15,12,37,8.10
2019,09,15,12,38,6.40
2019,09,15,12,39,4.80
2019,09,15,12,40,3.20
2019,09,15,12,41,6.40
2019,09,15,12,42,8.10
2019,09,15,12,43,4.80
2019,09,15,12,44,6.40
2019,09,15,12,45,4.80
2019,09,15,12,46,3.20
2019,09,15,12,47,6.40
2019,09,15,12,48,6.40
2019,09,15,12,49,6.40
2019,09,15,12,50,11.30
2019,09,15,12,51,11.30
2019,09,15,12,52,8.10
2019,09,15,12,53,12.90
2019,09,15,12,54,11.30
2019,09,15,12,55,6.40
2019,09,15,12,56,8.10
2019,09,15,12,57,6.40
2019,09,15,12,58,8.10
2019,09,15,12,59,8.10
2019,09,15,13,00,9.60
2019,09,15,13,01,6.40
2019,09,15,13,02,4.80
2019,09,15,13,03,9.60
2019,09,15,13,04,8.10
2019,09,15,13,05,3.20
2019,09,15,13,06,3.20
2019,09,15,13,07,4.80
2019,09,15,13,08,6.40
2019,09,15,13,09,4.80
2019,09,15,13,10,6.40
2019,09,15,13,11,6.40
2019,09,15,13,12,3.20
2019,09,15,13,13,6.40
2019,09,15,13,14,4.80
2019,09,15,13,15,6.40
2019,09,15,13,16,6.40
2019,09,15,13,17,3.20
2019,09,15,13,18,3.20
2019,09,15,13,19,4.80
2019,09,15,13,20,6.40
2019,09,15,13,21,9.60
2019,09,15,13,22,9.60
2019,09,15,13,23,11.30
2019,09,15,13,24,11.30
2019,09,15,13,25,9.60
2019,09,15,13,26,11.30
2019,09,15,13,27,12.90
2019,09,15,13,28,12.90
2019,09,15,13,29,14.50
2019,09,15,13,30,12.90
2019,09,15,13,31,16.10
2019,09,15,13,32,12.90
2019,09,15,13,33,16.10
2019,09,15,13,34,14.50
2019,09,15,13,35,14.50
2019,09,15,13,36,12.90
2019,09,15,13,37,11.30
2019,09,15,13,38,14.50
2019,09,15,13,39,12.90
2019,09,15,13,40,12.90
2019,09,15,13,41,14.50
2019,09,15,13,42,14.50
2019,09,15,13,43,14.50
2019,09,15,13,44,12.90
2019,09,15,13,45,12.90
2019,09,15,13,46,16.10
2019,09,15,13,47,14.50
2019,09,15,13,48,16.10
2019,09,15,13,49,14.50
2019,09,15,13,50,11.30
2019,09,15,13,51,9.60
2019,09,15,13,52,9.60
2019,09,15,13,53,11.30
2019,09,15,13,54,9.60
2019,09,15,13,55,14.50
2019,09,15,13,56,11.30
2019,09,15,13,57,9.60
2019,09,15,13,58,9.60
2019,09,15,13,59,9.60
2019,09,15,14,00,8.10
2019,09,15,14,01,11.30
2019,09,15,14,02,9.60
2019,09,15,14,03,9.60
2019,09,15,14,04,9.60
2019,09,15,14,05,8.10
2019,09,15,14,06,9.60
2019,09,15,14,07,12.90
2019,09,15,14,08,9.60
2019,09,15,14,09,8.10
2019,09,15,14,10,11.30
2019,09,15,14,11,9.60
2019,09,15,14,12,9.60
2019,09,15,14,13,11.30
2019,09,15,14,14,9.60
2019,09,15,14,15,9.60
2019,09,15,14,16,6.40
2019,09,15,14,17,8.10
2019,09,15,14,18,9.60
2019,09,15,14,19,11.30
2019,09,15,14,20,6.40
2019,09,15,14,21,11.30
2019,09,15,14,22,9.60
2019,09,15,14,23,11.30
2019,09,15,14,24,9.60
2019,09,15,14,25,9.60
2019,09,15,14,26,9.60
2019,09,15,14,27,8.10
2019,09,15,14,28,8.10
2019,09,15,14,29,11.30
2019,09,15,14,30,9.60
2019,09,15,14,31,4.80
2019,09,15,14,32,6.40
2019,09,15,14,33,6.40
2019,09,15,14,34,8.10
2019,09,15,14,35,9.60
2019,09,15,14,36,12.90
2019,09,15,14,37,11.30
2019,09,15,14,38,9.60
2019,09,15,14,39,8.10
2019,09,15,14,40,8.10
2019,09,15,14,41,11.30
2019,09,15,14,42,16.10
2019,09,15,14,43,11.30
2019,09,15,14,44,9.60
2019,09,15,14,45,11.30
2019,09,15,14,46,9.60
2019,09,15,14,47,11.30
2019,09,15,14,48,9.60
2019,09,15,14,49,4.80
2019,09,15,14,50,6.40
2019,09,15,14,51,8.10
2019,09,15,14,52,8.10
2019,09,15,14,53,11.30
2019,09,15,14,54,11.30
2019,09,15,14,55,11.30
2019,09,15,14,56,11.30
2019,09,15,14,57,9.60
2019,09,15,14,58,11.30
2019,09,15,14,59,9.60
2019,09,15,15,00,11.30
2019,09,15,15,01,6.40
2019,09,15,15,02,8.10
2019,09,15,15,03,6.40
2019,09,15,15,04,9.60
2019,09,15,15,05,8.10
2019,09,15,15,06,6.40
2019,09,15,15,07,6.40
2019,09,15,15,08,11.30
2019,09,15,15,09,11.30
2019,09,15,15,10,9.60
2019,09,15,15,11,11.30
2019,09,15,15,12,12.90
2019,09,15,15,13,9.60
2019,09,15,15,14,9.60
2019,09,15,15,15,9.60
2019,09,15,15,16,6.40
2019,09,15,15,17,11.30
2019,09,15,15,18,11.30
2019,09,15,15,19,12.90
2019,09,15,15,20,11.30
2019,09,15,15,21,6.40
2019,09,15,15,22,6.40
2019,09,15,15,23,6.40
2019,09,15,15,24,9.60
2019,09,15,15,25,6.40
2019,09,15,15,26,9.60
2019,09,15,15,27,9.60
2019,09,15,15,28,9.60
2019,09,15,15,29,11.30
2019,09,15,15,30,6.40
2019,09,15,15,31,11.30
2019,09,15,15,32,9.60
2019,09,15,15,33,9.60
2019,09,15,15,34,6.40
2019,09,15,15,35,11.30
2019,09,15,15,36,4.80
2019,09,15,15,37,6.40
2019,09,15,15,38,11.30
2019,09,15,15,39,8.10
2019,09,15,15,40,8.10
2019,09,15,15,41,9.60
2019,09,15,15,42,3.20
2019,09,15,15,43,6.40
2019,09,15,15,44,8.10
2019,09,15,15,45,4.80
2019,09,15,15,46,8.10
2019,09,15,15,47,9.60
2019,09,15,15,48,4.80
2019,09,15,15,49,9.60
2019,09,15,15,50,8.10
2019,09,15,15,51,4.80
2019,09,15,15,52,9.60
2019,09,15,15,53,9.60
2019,09,15,15,54,6.40
2019,09,15,15,55,6.40
2019,09,15,15,56,6.40
2019,09,15,15,57,6.40
2019,09,15,15,58,4.80
2019,09,15,15,59,6.40
2019,09,15,16,00,4.80
2019,09,15,16,01,4.80
2019,09,15,16,02,6.40
2019,09,15,16,03,9.60
2019,09,15,16,04,6.40
2019,09,15,16,05,6.40
2019,09,15,16,06,4.80
2019,09,15,16,07,6.40
2019,09,15,16,08,4.80
2019,09,15,16,09,4.80
2019,09,15,16,10,8.10
2019,09,15,16,11,8.10
2019,09,15,16,12,9.60
2019,09,15,16,13,6.40
2019,09,15,16,14,6.40
2019,09,15,16,15,6.40
2019,09,15,16,16,6.40
2019,09,15,16,17,4.80
2019,09,15,16,18,3.20
2019,09,15,16,45,1.60
2019,09,15,16,47,3.20
2019,09,15,16,48,6.40
2019,09,15,16,49,6.40
2019,09,15,16,50,6.40
2019,09,15,16,51,6.40
2019,09,15,16,52,6.40
2019,09,15,16,53,6.40
2019,09,15,16,54,4.80
2019,09,15,16,55,4.80
2019,09,15,17,16,3.20
2019,09,15,17,17,3.20
2019,09,15,17,18,3.20
2019,09,15,17,19,6.40
2019,09,15,17,20,4.80
2019,09,15,17,21,4.80
2019,09,15,17,22,6.40
2019,09,15,17,23,6.40
2019,09,15,17,24,6.40
2019,09,15,17,25,6.40
2019,09,15,17,26,8.10
2019,09,15,17,27,6.40
2019,09,15,17,28,4.80
2019,09,15,17,29,4.80
2019,09,15,17,30,4.80
2019,09,15,17,31,3.20
2019,09,15,17,32,3.20
2019,09,15,17,33,3.20
2019,09,15,17,34,4.80
2019,09,15,17,35,4.80
2019,09,15,17,36,3.20
2019,09,15,17,37,3.20
2019,09,15,17,42,4.80
2019,09,15,17,43,4.80
2019,09,15,17,44,3.20
2019,09,15,17,45,4.80
2019,09,15,17,46,4.80
2019,09,15,17,47,4.80
2019,09,15,17,48,6.40
2019,09,15,17,49,6.40
2019,09,15,17,50,4.80
2019,09,15,17,51,4.80
2019,09,15,17,52,3.20
2019,09,15,17,59,1.60
2019,09,15,18,00,3.20
2019,09,15,18,01,6.40
2019,09,15,18,02,4.80
2019,09,15,18,03,4.80
2019,09,15,18,04,4.80
2019,09,15,18,05,1.60
2019,09,15,18,06,1.60
2019,09,15,18,14,1.60
2019,09,15,18,15,3.20
2019,09,15,18,16,3.20
2019,09,15,18,17,3.20
2019,09,15,18,31,1.60
2019,09,15,18,36,3.20
2019,09,15,18,37,4.80
2019,09,15,18,38,4.80
2019,09,15,18,39,4.80
2019,09,15,18,40,4.80
2019,09,15,18,41,3.20
2019,09,15,18,42,3.20
2019,09,15,18,48,3.20
2019,09,15,18,49,3.20
2019,09,15,18,50,3.20
2019,09,15,18,51,1.60
2019,09,15,18,53,1.60
2019,09,15,18,54,1.60
2019,09,15,18,58,1.60
2019,09,15,18,59,3.20
2019,09,15,19,07,1.60
2019,09,15,19,08,1.60
2019,09,15,19,09,4.80
2019,09,15,19,10,4.80
2019,09,15,19,11,4.80
2019,09,15,19,12,1.60
2019,09,15,19,13,3.20
2019,09,15,19,14,1.60
2019,09,15,19,17,1.60
2019,09,15,19,18,1.60
2019,09,15,19,19,1.60
2019,09,15,19,20,3.20
2019,09,15,19,21,3.20
2019,09,15,19,24,1.60
2019,09,15,19,25,1.60
2019,09,15,19,27,1.60
2019,09,15,19,31,3.20
2019,09,15,19,32,1.60
2019,09,15,19,34,3.20
2019,09,15,19,35,3.20
2019,09,15,19,36,1.60
2019,09,15,19,37,1.60
2019,09,15,19,38,3.20
2019,09,15,19,39,1.60
2019,09,15,19,40,1.60
2019,09,15,19,41,4.80
2019,09,15,19,42,3.20
2019,09,15,19,43,3.20
2019,09,15,19,44,4.80
2019,09,15,19,45,4.80
2019,09,15,19,46,4.80
2019,09,15,19,47,4.80
2019,09,15,19,48,4.80
2019,09,15,19,49,4.80
2019,09,15,19,50,4.80
2019,09,15,19,51,3.20
2019,09,15,19,52,4.80
2019,09,15,19,53,3.20
2019,09,15,19,54,3.20
2019,09,15,19,55,3.20
2019,09,15,19,56,3.20
2019,09,15,19,57,3.20
2019,09,15,19,58,3.20
2019,09,15,19,59,3.20
2019,09,15,20,00,3.20
2019,09,15,20,01,3.20
2019,09,15,20,02,4.80
2019,09,15,20,03,4.80
2019,09,15,20,04,3.20
2019,09,15,20,05,4.80
2019,09,15,20,06,3.20
2019,09,15,20,07,3.20
2019,09,15,20,08,1.60
2019,09,15,20,11,3.20
2019,09,15,20,12,3.20
2019,09,15,20,13,3.20
2019,09,15,20,14,3.20
2019,09,15,21,13,4.80
2019,09,15,21,14,3.20
2019,09,15,21,15,3.20
2019,09,15,21,29,3.20
2019,09,15,21,30,1.60
2019,09,15,21,33,1.60
2019,09,15,21,43,1.60
2019,09,15,21,46,1.60
2019,09,15,21,47,4.80
2019,09,15,21,48,1.60
2019,09,15,23,25,6.40
2019,09,15,23,26,6.40
2019,09,15,23,27,4.80
2019,09,15,23,28,3.20
2019,09,15,23,29,3.20
2019,09,15,23,30,1.60
2019,09,15,23,31,3.20
2019,09,15,23,32,3.20
2019,09,15,23,33,3.20
2019,09,15,23,34,3.20
2019,09,15,23,35,1.60
2019,09,15,23,36,3.20
2019,09,15,23,37,3.20
2019,09,15,23,38,3.20
2019,09,15,23,40,3.20
2019,09,15,23,41,3.20
2019,09,15,23,42,3.20
2019,09,15,23,44,1.60
2019,09,15,23,45,3.20
2019,09,15,23,46,3.20
2019,09,15,23,47,3.20
2019,09,15,23,48,1.60
2019,09,15,23,49,3.20
2019,09,15,23,50,3.20
2019,09,15,23,51,3.20
2019,09,15,23,52,3.20
2019,09,15,23,53,1.60
2019,09,15,23,54,1.60
